Time,TemperatureF,DewpointF,PressureIn,WindDirection,WindDirectionDegrees,WindSpeedMPH,WindSpeedGustMPH,Humidity,HourlyPrecipIn,Conditions,Clouds,dailyrainin,SoftwareType,DateUTC
2014-01-12 00:02:00,34.7,33.4,28.98,North,0,0.0,0.0,95,0.00,,,0.00,WUHU216HW,2014-01-12 05:02:00,
2014-01-12 00:17:00,34.9,33.6,28.97,North,0,0.0,0.0,95,0.00,,,0.00,WUHU216HW,2014-01-12 05:17:00,
2014-01-12 00:32:00,35.1,33.8,28.98,North,0,0.0,0.0,95,0.00,,,0.00,WUHU216HW,2014-01-12 05:32:00,
2014-01-12 00:47:00,34.7,33.1,28.98,North,0,0.0,0.0,94,0.00,,,0.00,WUHU216HW,2014-01-12 05:47:00,
2014-01-12 01:02:00,35.1,33.8,28.98,North,0,0.0,0.0,95,0.00,,,0.00,WUHU216HW,2014-01-12 06:02:00,
2014-01-12 01:17:00,34.9,33.6,28.97,North,0,0.0,0.0,95,0.00,,,0.00,WUHU216HW,2014-01-12 06:17:00,
2014-01-12 01:32:00,34.7,33.4,28.98,North,0,0.0,0.0,95,0.00,,,0.00,WUHU216HW,2014-01-12 06:32:00,
2014-01-12 01:47:00,35.1,33.8,29.00,North,0,0.0,0.0,95,0.00,,,0.00,WUHU216HW,2014-01-12 06:47:00,
2014-01-12 02:02:00,35.5,34.1,28.99,North,0,0.0,0.0,95,0.00,,,0.00,WUHU216HW,2014-01-12 07:02:00,
2014-01-12 02:17:00,35.6,34.3,29.00,North,0,0.0,0.0,95,0.00,,,0.00,WUHU216HW,2014-01-12 07:17:00,
2014-01-12 02:32:00,35.1,33.8,29.02,North,0,0.0,0.0,95,0.00,,,0.00,WUHU216HW,2014-01-12 07:32:00,
2014-01-12 02:47:00,34.9,33.6,29.03,North,0,0.0,0.0,95,0.00,,,0.00,WUHU216HW,2014-01-12 07:47:00,
2014-01-12 03:02:00,35.3,33.9,29.04,North,0,0.0,0.0,95,0.00,,,0.00,WUHU216HW,2014-01-12 08:02:00,
2014-01-12 03:17:00,36.9,35.8,29.04,North,0,0.0,0.0,96,0.00,,,0.00,WUHU216HW,2014-01-12 08:17:00,
2014-01-12 03:32:00,37.1,36.0,29.04,North,0,0.0,0.0,96,0.00,,,0.00,WUHU216HW,2014-01-12 08:32:00,
2014-01-12 03:47:00,36.2,34.8,29.04,North,0,0.0,0.0,95,0.00,,,0.00,WUHU216HW,2014-01-12 08:47:00,
2014-01-12 04:02:00,36.0,34.7,29.04,North,0,0.0,0.0,95,0.00,,,0.00,WUHU216HW,2014-01-12 09:02:00,
2014-01-12 04:17:00,36.4,35.0,29.04,North,0,0.0,0.0,95,0.00,,,0.00,WUHU216HW,2014-01-12 09:17:00,
2014-01-12 04:32:00,36.2,34.8,29.04,North,0,0.0,0.0,95,0.00,,,0.00,WUHU216HW,2014-01-12 09:32:00,
2014-01-12 04:47:00,35.8,34.7,29.04,North,0,0.0,0.0,96,0.00,,,0.00,WUHU216HW,2014-01-12 09:47:00,
2014-01-12 05:02:00,35.6,34.3,29.05,North,0,0.0,0.0,95,0.00,,,0.00,WUHU216HW,2014-01-12 10:02:00,
2014-01-12 05:17:00,35.6,34.3,29.05,North,0,0.0,0.0,95,0.00,,,0.00,WUHU216HW,2014-01-12 10:17:00,
2014-01-12 05:32:00,34.7,33.4,29.05,North,0,0.0,0.0,95,0.00,,,0.00,WUHU216HW,2014-01-12 10:32:00,
2014-01-12 05:47:00,34.6,33.2,29.06,North,0,0.0,0.0,95,0.00,,,0.00,WUHU216HW,2014-01-12 10:47:00,
2014-01-12 06:02:00,34.4,33.0,29.07,North,0,0.0,0.0,95,0.00,,,0.00,WUHU216HW,2014-01-12 11:02:00,
2014-01-12 06:17:00,34.2,32.9,29.08,North,0,0.0,0.0,95,0.00,,,0.00,WUHU216HW,2014-01-12 11:17:00,
2014-01-12 06:32:00,34.9,33.6,29.09,North,0,0.0,0.0,95,0.00,,,0.00,WUHU216HW,2014-01-12 11:32:00,
2014-01-12 06:47:00,34.7,33.4,29.09,North,0,0.0,0.0,95,0.00,,,0.00,WUHU216HW,2014-01-12 11:47:00,
2014-01-12 07:02:00,34.4,33.0,29.11,North,0,0.0,0.0,95,0.00,,,0.00,WUHU216HW,2014-01-12 12:02:00,
2014-01-12 07:17:00,34.6,33.2,29.12,North,0,0.0,0.0,95,0.00,,,0.00,WUHU216HW,2014-01-12 12:17:00,
2014-01-12 07:32:00,34.6,33.2,29.13,North,0,0.0,0.0,95,0.00,,,0.00,WUHU216HW,2014-01-12 12:32:00,
2014-01-12 07:47:00,35.3,33.7,29.14,North,0,0.0,0.0,94,0.00,,,0.00,WUHU216HW,2014-01-12 12:47:00,
2014-01-12 08:02:00,35.6,33.8,29.16,North,0,0.0,0.0,93,0.00,,,0.00,WUHU216HW,2014-01-12 13:02:00,
2014-01-12 08:17:00,36.9,33.9,29.17,North,0,0.0,0.0,89,0.00,,,0.00,WUHU216HW,2014-01-12 13:17:00,
2014-01-12 08:32:00,37.8,33.7,29.17,North,0,0.0,0.0,85,0.00,,,0.00,WUHU216HW,2014-01-12 13:32:00,
2014-01-12 08:47:00,37.6,34.4,29.18,North,0,0.0,0.0,88,0.00,,,0.00,WUHU216HW,2014-01-12 13:47:00,
2014-01-12 09:02:00,38.2,33.1,29.19,North,0,0.0,0.0,82,0.00,,,0.00,WUHU216HW,2014-01-12 14:02:00,
2014-01-12 09:17:00,38.0,33.8,29.20,North,0,0.0,0.0,85,0.00,,,0.00,WUHU216HW,2014-01-12 14:17:00,
2014-01-12 09:32:00,37.8,33.7,29.21,North,0,0.0,0.0,85,0.00,,,0.00,WUHU216HW,2014-01-12 14:32:00,
2014-01-12 09:47:00,38.3,33.7,29.22,North,0,0.0,0.0,83,0.00,,,0.00,WUHU216HW,2014-01-12 14:47:00,
2014-01-12 10:02:00,38.0,32.9,29.22,North,0,0.0,0.0,82,0.00,,,0.00,WUHU216HW,2014-01-12 15:02:00,
2014-01-12 10:17:00,38.5,32.6,29.23,North,0,0.0,0.0,79,0.00,,,0.00,WUHU216HW,2014-01-12 15:17:00,
2014-01-12 10:32:00,38.5,32.9,29.23,North,0,0.0,0.0,80,0.00,,,0.00,WUHU216HW,2014-01-12 15:32:00,
2014-01-12 10:47:00,39.1,33.1,29.23,North,0,0.0,0.0,79,0.00,,,0.00,WUHU216HW,2014-01-12 15:47:00,
2014-01-12 11:02:00,39.6,33.3,29.23,WNW,296,3.6,8.1,78,0.00,,,0.00,WUHU216HW,2014-01-12 16:02:00,
2014-01-12 11:17:00,39.4,31.8,29.25,WNW,299,3.9,9.8,74,0.00,,,0.00,WUHU216HW,2014-01-12 16:17:00,
2014-01-12 11:32:00,39.2,32.7,29.24,SSW,207,2.3,5.4,77,0.00,,,0.00,WUHU216HW,2014-01-12 16:32:00,
2014-01-12 11:47:00,39.1,32.1,29.25,West,280,3.6,8.9,76,0.00,,,0.00,WUHU216HW,2014-01-12 16:47:00,
2014-01-12 12:02:00,39.1,31.4,29.24,WSW,253,4.1,11.2,74,0.00,,,0.00,WUHU216HW,2014-01-12 17:02:00,
2014-01-12 12:17:00,38.9,32.0,29.24,South,183,2.5,4.9,76,0.00,,,0.00,WUHU216HW,2014-01-12 17:17:00,
2014-01-12 12:32:00,39.2,31.2,29.24,SW,218,3.5,9.2,73,0.00,,,0.00,WUHU216HW,2014-01-12 17:32:00,
2014-01-12 12:47:00,40.9,31.9,29.26,WSW,241,3.3,9.6,70,0.00,,,0.00,WUHU216HW,2014-01-12 17:47:00,
2014-01-12 13:02:00,40.7,32.1,29.26,SW,214,3.3,7.6,71,0.00,,,0.00,WUHU216HW,2014-01-12 18:02:00,
2014-01-12 13:17:00,40.5,30.3,29.26,WSW,254,3.7,7.8,67,0.00,,,0.00,WUHU216HW,2014-01-12 18:17:00,
2014-01-12 13:32:00,40.9,31.2,29.27,South,190,3.5,8.5,68,0.00,,,0.00,WUHU216HW,2014-01-12 18:32:00,
2014-01-12 13:47:00,41.0,30.9,29.29,WSW,254,3.6,8.1,67,0.00,,,0.00,WUHU216HW,2014-01-12 18:47:00,
2014-01-12 14:02:00,40.5,30.8,29.30,SW,233,4.5,7.8,68,0.00,,,0.00,WUHU216HW,2014-01-12 19:02:00,
2014-01-12 14:17:00,40.1,30.0,29.30,SW,229,5.5,10.5,67,0.00,,,0.00,WUHU216HW,2014-01-12 19:17:00,
2014-01-12 14:32:00,40.0,28.7,29.32,SW,223,6.1,13.4,64,0.00,,,0.00,WUHU216HW,2014-01-12 19:32:00,
2014-01-12 14:47:00,39.2,29.5,29.34,WSW,243,6.3,14.3,68,0.00,,,0.00,WUHU216HW,2014-01-12 19:47:00,
2014-01-12 15:02:00,38.9,29.5,29.34,West,274,4.6,8.9,69,0.00,,,0.00,WUHU216HW,2014-01-12 20:02:00,
2014-01-12 15:17:00,38.9,29.9,29.36,West,259,5.7,14.5,70,0.00,,,0.00,WUHU216HW,2014-01-12 20:17:00,
2014-01-12 15:32:00,38.7,30.1,29.37,West,261,5.0,12.5,71,0.01,,,0.01,WUHU216HW,2014-01-12 20:32:00,
2014-01-12 15:47:00,38.5,30.0,29.36,WSW,256,5.5,18.3,71,0.01,,,0.01,WUHU216HW,2014-01-12 20:47:00,
2014-01-12 16:02:00,38.5,28.8,29.38,West,259,5.9,17.7,68,0.01,,,0.01,WUHU216HW,2014-01-12 21:02:00,
2014-01-12 16:17:00,38.5,28.4,29.38,West,265,6.3,13.0,67,0.01,,,0.01,WUHU216HW,2014-01-12 21:17:00,
2014-01-12 16:32:00,38.0,28.4,29.40,West,259,5.4,15.0,68,0.00,,,0.01,WUHU216HW,2014-01-12 21:32:00,
2014-01-12 16:47:00,37.8,28.2,29.41,SSE,158,3.8,15.2,68,0.00,,,0.01,WUHU216HW,2014-01-12 21:47:00,
2014-01-12 17:02:00,37.8,27.8,29.43,WSW,239,3.9,8.1,67,0.00,,,0.01,WUHU216HW,2014-01-12 22:02:00,
2014-01-12 17:17:00,38.0,26.8,29.45,South,187,4.3,9.6,64,0.00,,,0.01,WUHU216HW,2014-01-12 22:17:00,
2014-01-12 17:32:00,37.4,27.5,29.48,NW,324,2.6,10.1,67,0.00,,,0.01,WUHU216HW,2014-01-12 22:32:00,
2014-01-12 17:47:00,37.6,27.3,29.49,North,4,2.8,6.0,66,0.00,,,0.01,WUHU216HW,2014-01-12 22:47:00,
2014-01-12 18:02:00,37.3,27.3,29.49,ENE,71,2.6,6.5,67,0.00,,,0.01,WUHU216HW,2014-01-12 23:02:00,
2014-01-12 18:17:00,37.3,25.8,29.51,West,259,3.6,7.6,63,0.00,,,0.01,WUHU216HW,2014-01-12 23:17:00,
2014-01-12 18:32:00,37.4,26.4,29.51,WSW,256,3.2,7.2,64,0.00,,,0.01,WUHU216HW,2014-01-12 23:32:00,
2014-01-12 18:47:00,36.9,27.0,29.52,WNW,288,2.5,8.3,67,0.00,,,0.01,WUHU216HW,2014-01-12 23:47:00,
2014-01-12 19:02:00,36.9,26.6,29.52,SW,215,3.0,6.5,66,0.00,,,0.01,WUHU216HW,2014-01-13 00:02:00,
2014-01-12 19:17:00,36.9,26.6,29.53,WSW,244,3.3,9.8,66,0.00,,,0.01,WUHU216HW,2014-01-13 00:17:00,
2014-01-12 19:32:00,36.7,26.5,29.53,West,260,3.6,10.1,66,0.00,,,0.01,WUHU216HW,2014-01-13 00:32:00,
2014-01-12 19:47:00,36.7,26.8,29.54,West,270,4.0,8.9,67,0.00,,,0.01,WUHU216HW,2014-01-13 00:47:00,
2014-01-12 20:02:00,36.5,26.3,29.54,West,263,6.0,12.5,66,0.00,,,0.01,WUHU216HW,2014-01-13 01:02:00,
2014-01-12 20:17:00,36.4,26.5,29.55,West,273,6.0,11.6,67,0.00,,,0.01,WUHU216HW,2014-01-13 01:17:00,
2014-01-12 20:32:00,36.2,26.7,29.55,West,275,6.3,12.3,68,0.00,,,0.01,WUHU216HW,2014-01-13 01:32:00,
2014-01-12 20:47:00,36.0,26.5,29.56,West,275,6.0,13.4,68,0.00,,,0.01,WUHU216HW,2014-01-13 01:47:00,
2014-01-12 21:02:00,35.6,25.4,29.56,West,280,6.0,17.2,66,0.00,,,0.01,WUHU216HW,2014-01-13 02:02:00,
2014-01-12 21:17:00,35.6,25.4,29.58,West,268,5.8,22.4,66,0.00,,,0.01,WUHU216HW,2014-01-13 02:17:00,
2014-01-12 21:32:00,35.6,25.0,29.58,West,270,6.3,12.1,65,0.00,,,0.01,WUHU216HW,2014-01-13 02:32:00,
2014-01-12 21:47:00,35.5,25.2,29.58,West,268,5.5,11.6,66,0.00,,,0.01,WUHU216HW,2014-01-13 02:47:00,
2014-01-12 22:02:00,35.3,25.4,29.60,West,266,4.6,11.4,67,0.00,,,0.01,WUHU216HW,2014-01-13 03:02:00,
2014-01-12 22:17:00,35.3,25.7,29.59,West,273,5.0,7.8,68,0.00,,,0.01,WUHU216HW,2014-01-13 03:17:00,
2014-01-12 22:32:00,35.3,26.1,29.61,West,268,4.8,16.8,69,0.00,,,0.01,WUHU216HW,2014-01-13 03:32:00,
2014-01-12 22:47:00,35.3,26.5,29.61,West,264,4.0,12.1,70,0.00,,,0.01,WUHU216HW,2014-01-13 03:47:00,
2014-01-12 23:02:00,35.1,26.3,29.61,West,272,3.8,12.1,70,0.00,,,0.01,WUHU216HW,2014-01-13 04:02:00,
2014-01-12 23:17:00,35.3,26.5,29.61,West,270,3.6,9.6,70,0.00,,,0.01,WUHU216HW,2014-01-13 04:17:00,
2014-01-12 23:32:00,35.1,26.7,29.63,SW,221,2.8,9.6,71,0.00,,,0.01,WUHU216HW,2014-01-13 04:32:00,
2014-01-12 23:47:00,34.9,26.7,29.63,West,266,2.3,6.0,72,0.00,,,0.01,WUHU216HW,2014-01-13 04:47:00,